Time,TemperatureF,DewpointF,PressureIn,WindDirection,WindDirectionDegrees,WindSpeedMPH,WindSpeedGustMPH,Humidity,HourlyPrecipIn,Conditions,Clouds,dailyrainin,SoftwareType,DateUTC
2013-01-13 00:03:00,37.6,-7.3,30.05,SE,127,3.1,3.6,14,0.00,,,0.00,VWS V14.01,2013-01-13 08:03:00,
2013-01-13 00:08:00,37.4,-7.4,30.05,ESE,105,0.0,0.0,14,0.00,,,0.00,VWS V14.01,2013-01-13 08:08:00,
2013-01-13 00:13:00,37.2,-7.6,30.05,NE,51,0.0,0.0,14,0.00,,,0.00,VWS V14.01,2013-01-13 08:13:00,
2013-01-13 00:18:00,36.9,-7.9,30.05,ESE,119,3.1,3.6,14,0.00,,,0.00,VWS V14.01,2013-01-13 08:18:00,
2013-01-13 00:23:00,37.0,-7.7,30.05,ESE,116,3.6,4.9,14,0.00,,,0.00,VWS V14.01,2013-01-13 08:23:00,
2013-01-13 00:28:00,37.2,-7.6,30.05,East,95,4.0,4.0,14,0.00,,,0.00,VWS V14.01,2013-01-13 08:28:00,
2013-01-13 00:33:00,37.2,-7.6,30.05,NE,35,4.0,4.0,14,0.00,,,0.00,VWS V14.01,2013-01-13 08:33:00,
2013-01-13 00:38:00,37.4,-7.4,30.05,ESE,116,2.2,3.1,14,0.00,,,0.00,VWS V14.01,2013-01-13 08:38:00,
2013-01-13 00:43:00,37.6,-7.3,30.05,NNE,28,4.5,4.5,14,0.00,,,0.00,VWS V14.01,2013-01-13 08:43:00,
2013-01-13 00:48:00,37.6,-7.3,30.05,NE,49,4.9,4.9,14,0.00,,,0.00,VWS V14.01,2013-01-13 08:48:00,
2013-01-13 00:53:00,37.6,-7.3,30.05,ENE,72,3.1,5.4,14,0.00,,,0.00,VWS V14.01,2013-01-13 08:53:00,
2013-01-13 00:58:00,37.8,-7.2,30.05,North,10,3.6,3.6,14,0.00,,,0.00,VWS V14.01,2013-01-13 08:58:00,
2013-01-13 01:03:00,37.6,-7.3,30.05,SE,140,3.6,6.7,14,0.00,,,0.00,VWS V14.01,2013-01-13 09:03:00,
2013-01-13 01:08:00,37.6,-7.3,30.05,SE,131,4.0,5.8,14,0.00,,,0.00,VWS V14.01,2013-01-13 09:08:00,
2013-01-13 01:13:00,37.4,-7.4,30.02,ENE,62,3.6,5.4,14,0.00,,,0.00,VWS V14.01,2013-01-13 09:13:00,
2013-01-13 01:18:00,37.4,-7.4,30.02,ESE,103,3.6,4.0,14,0.00,,,0.00,VWS V14.01,2013-01-13 09:18:00,
2013-01-13 01:23:00,37.0,-7.7,30.05,ESE,123,3.6,4.0,14,0.00,,,0.00,VWS V14.01,2013-01-13 09:23:00,
2013-01-13 01:28:00,36.9,-7.9,30.05,ENE,75,0.0,4.9,14,0.00,,,0.00,VWS V14.01,2013-01-13 09:28:00,
2013-01-13 01:33:00,36.9,-7.9,30.05,NNE,15,0.0,6.3,14,0.00,,,0.00,VWS V14.01,2013-01-13 09:33:00,
2013-01-13 01:38:00,36.9,-7.9,30.05,SE,126,4.9,6.3,14,0.00,,,0.00,VWS V14.01,2013-01-13 09:38:00,
2013-01-13 01:43:00,36.9,-7.9,30.05,North,353,2.7,3.1,14,0.00,,,0.00,VWS V14.01,2013-01-13 09:43:00,
2013-01-13 01:48:00,36.9,-7.9,30.05,NNE,32,2.2,3.6,14,0.00,,,0.00,VWS V14.01,2013-01-13 09:48:00,
2013-01-13 01:53:00,36.9,-7.9,30.05,NNE,23,3.6,5.8,14,0.00,,,0.00,VWS V14.01,2013-01-13 09:53:00,
2013-01-13 01:58:00,36.9,-7.9,30.05,NNE,15,4.9,4.9,14,0.00,,,0.00,VWS V14.01,2013-01-13 09:58:00,
2013-01-13 02:03:00,36.9,-7.9,30.05,SE,146,2.2,2.7,14,0.00,,,0.00,VWS V14.01,2013-01-13 10:03:00,
2013-01-13 02:08:00,36.9,-7.9,30.05,ESE,115,3.1,3.6,14,0.00,,,0.00,VWS V14.01,2013-01-13 10:08:00,
2013-01-13 02:13:00,36.9,-7.9,30.05,East,91,2.7,3.1,14,0.00,,,0.00,VWS V14.01,2013-01-13 10:13:00,
2013-01-13 02:18:00,36.9,-7.9,30.05,ESE,113,5.4,5.4,14,0.00,,,0.00,VWS V14.01,2013-01-13 10:18:00,
2013-01-13 02:23:00,36.7,-8.0,30.05,SSE,156,5.4,7.6,14,0.00,,,0.00,VWS V14.01,2013-01-13 10:23:00,
2013-01-13 02:28:00,36.7,-8.0,30.05,ESE,108,3.1,8.1,14,0.00,,,0.00,VWS V14.01,2013-01-13 10:28:00,
2013-01-13 02:34:00,36.7,-8.0,30.05,SE,126,2.7,5.4,14,0.00,,,0.00,VWS V14.01,2013-01-13 10:34:00,
2013-01-13 02:39:00,36.7,-8.0,30.05,East,93,4.9,5.8,14,0.00,,,0.00,VWS V14.01,2013-01-13 10:39:00,
2013-01-13 02:44:00,36.7,-8.0,30.05,NNW,329,2.7,2.7,14,0.00,,,0.00,VWS V14.01,2013-01-13 10:44:00,
2013-01-13 02:49:00,36.7,-8.0,30.05,SE,136,2.7,5.4,14,0.00,,,0.00,VWS V14.01,2013-01-13 10:49:00,
2013-01-13 02:54:00,36.7,-8.0,30.05,SE,129,4.0,4.0,14,0.00,,,0.00,VWS V14.01,2013-01-13 10:54:00,
2013-01-13 02:59:00,36.7,-8.0,30.05,ESE,114,2.7,5.4,14,0.00,,,0.00,VWS V14.01,2013-01-13 10:59:00,
2013-01-13 03:04:00,36.7,-8.0,30.05,SE,135,3.6,5.4,14,0.00,,,0.00,VWS V14.01,2013-01-13 11:04:00,
2013-01-13 03:09:00,36.7,-8.0,30.05,North,349,4.0,4.9,14,0.00,,,0.00,VWS V14.01,2013-01-13 11:09:00,
2013-01-13 03:14:00,36.7,-8.0,30.05,ESE,105,8.3,8.3,14,0.00,,,0.00,VWS V14.01,2013-01-13 11:14:00,
2013-01-13 03:19:00,36.7,-8.0,30.05,ENE,78,3.1,5.4,14,0.00,,,0.00,VWS V14.01,2013-01-13 11:19:00,
2013-01-13 03:24:00,36.7,-8.0,30.05,NNE,33,5.4,5.8,14,0.00,,,0.00,VWS V14.01,2013-01-13 11:24:00,
2013-01-13 03:29:00,36.7,-8.0,30.05,SSE,156,2.7,4.9,14,0.00,,,0.00,VWS V14.01,2013-01-13 11:29:00,
2013-01-13 03:34:00,36.5,-8.2,30.05,SE,135,3.6,3.6,14,0.00,,,0.00,VWS V14.01,2013-01-13 11:34:00,
2013-01-13 03:39:00,36.3,-8.3,30.05,SSE,153,0.0,2.2,14,0.00,,,0.00,VWS V14.01,2013-01-13 11:39:00,
2013-01-13 03:44:00,36.1,-8.4,30.05,NNE,20,3.1,3.1,14,0.00,,,0.00,VWS V14.01,2013-01-13 11:44:00,
2013-01-13 03:49:00,35.8,-8.7,30.05,SSW,209,3.6,4.5,14,0.00,,,0.00,VWS V14.01,2013-01-13 11:49:00,
2013-01-13 03:54:00,35.6,-8.9,30.05,SE,127,3.6,3.6,14,0.00,,,0.00,VWS V14.01,2013-01-13 11:54:00,
2013-01-13 03:59:00,35.4,-7.6,30.05,SE,126,3.1,4.0,15,0.00,,,0.00,VWS V14.01,2013-01-13 11:59:00,
2013-01-13 04:04:00,35.4,-7.6,30.05,NE,38,3.1,4.0,15,0.00,,,0.00,VWS V14.01,2013-01-13 12:04:00,
2013-01-13 04:09:00,35.2,-7.8,30.05,SE,134,3.6,4.9,15,0.00,,,0.00,VWS V14.01,2013-01-13 12:09:00,
2013-01-13 04:14:00,35.1,-7.9,30.05,ESE,118,3.6,4.5,15,0.00,,,0.00,VWS V14.01,2013-01-13 12:14:00,
2013-01-13 04:19:00,35.1,-7.9,30.05,ESE,119,3.1,5.4,15,0.00,,,0.00,VWS V14.01,2013-01-13 12:19:00,
2013-01-13 04:24:00,35.1,-7.9,30.05,ESE,120,2.7,3.1,15,0.00,,,0.00,VWS V14.01,2013-01-13 12:24:00,
2013-01-13 04:29:00,35.1,-7.9,30.05,SE,134,2.7,2.7,15,0.00,,,0.00,VWS V14.01,2013-01-13 12:29:00,
2013-01-13 04:34:00,35.1,-7.9,30.05,ESE,107,0.0,4.0,15,0.00,,,0.00,VWS V14.01,2013-01-13 12:34:00,
2013-01-13 04:39:00,34.9,-8.1,30.05,ESE,119,0.0,2.2,15,0.00,,,0.00,VWS V14.01,2013-01-13 12:39:00,
2013-01-13 04:44:00,34.7,-8.2,30.05,East,89,2.7,2.7,15,0.00,,,0.00,VWS V14.01,2013-01-13 12:44:00,
2013-01-13 04:49:00,34.7,-8.2,30.05,ESE,111,2.7,2.7,15,0.00,,,0.00,VWS V14.01,2013-01-13 12:49:00,
2013-01-13 04:54:00,34.7,-8.2,30.05,East,93,3.6,4.0,15,0.00,,,0.00,VWS V14.01,2013-01-13 12:54:00,
2013-01-13 04:59:00,34.7,-8.2,30.05,SE,134,2.7,2.7,15,0.00,,,0.00,VWS V14.01,2013-01-13 12:59:00,
2013-01-13 05:04:00,34.9,-8.1,30.05,SE,129,4.9,4.9,15,0.00,,,0.00,VWS V14.01,2013-01-13 13:04:00,
2013-01-13 05:09:00,34.9,-8.1,30.05,SSE,163,0.0,0.0,15,0.00,,,0.00,VWS V14.01,2013-01-13 13:09:00,
2013-01-13 05:14:00,34.7,-8.2,30.05,ESE,113,3.6,3.6,15,0.00,,,0.00,VWS V14.01,2013-01-13 13:14:00,
2013-01-13 05:19:00,34.5,-8.4,30.05,ESE,111,4.0,4.0,15,0.00,,,0.00,VWS V14.01,2013-01-13 13:19:00,
2013-01-13 05:24:00,34.3,-8.5,30.05,SE,140,2.7,2.7,15,0.00,,,0.00,VWS V14.01,2013-01-13 13:24:00,
2013-01-13 05:29:00,34.2,-8.6,30.05,SE,130,4.0,4.0,15,0.00,,,0.00,VWS V14.01,2013-01-13 13:29:00,
2013-01-13 05:34:00,34.2,-8.6,30.05,ESE,109,2.2,3.6,15,0.00,,,0.00,VWS V14.01,2013-01-13 13:34:00,
2013-01-13 05:39:00,34.0,-8.8,30.05,SE,125,2.7,2.7,15,0.00,,,0.00,VWS V14.01,2013-01-13 13:39:00,
2013-01-13 05:44:00,34.0,-8.8,30.05,ESE,105,3.1,3.1,15,0.00,,,0.00,VWS V14.01,2013-01-13 13:44:00,
2013-01-13 05:49:00,34.2,-8.6,30.05,SSE,163,3.6,3.6,15,0.00,,,0.00,VWS V14.01,2013-01-13 13:49:00,
2013-01-13 05:54:00,34.3,-8.5,30.05,SE,132,5.8,5.8,15,0.00,,,0.00,VWS V14.01,2013-01-13 13:54:00,
2013-01-13 05:59:00,34.3,-8.5,30.05,ESE,113,3.6,4.0,15,0.00,,,0.00,VWS V14.01,2013-01-13 13:59:00,
2013-01-13 06:04:00,34.3,-8.5,30.05,SE,139,2.7,4.9,15,0.00,,,0.00,VWS V14.01,2013-01-13 14:04:00,
2013-01-13 06:09:00,34.2,-8.6,30.05,ESE,110,2.7,4.0,15,0.00,,,0.00,VWS V14.01,2013-01-13 14:09:00,
2013-01-13 06:14:00,34.0,-8.8,30.05,ESE,118,4.9,4.9,15,0.00,,,0.00,VWS V14.01,2013-01-13 14:14:00,
2013-01-13 06:19:00,34.0,-8.8,30.05,ESE,109,5.4,5.4,15,0.00,,,0.00,VWS V14.01,2013-01-13 14:19:00,
2013-01-13 06:24:00,34.0,-8.8,30.08,SE,129,3.1,3.1,15,0.00,,,0.00,VWS V14.01,2013-01-13 14:24:00,
2013-01-13 06:29:00,34.0,-8.8,30.08,ESE,122,3.6,5.4,15,0.00,,,0.00,VWS V14.01,2013-01-13 14:29:00,
2013-01-13 06:34:00,34.0,-8.8,30.08,SE,129,4.0,4.0,15,0.00,,,0.00,VWS V14.01,2013-01-13 14:34:00,
2013-01-13 06:39:00,34.0,-8.8,30.08,ESE,104,3.1,3.1,15,0.00,,,0.00,VWS V14.01,2013-01-13 14:39:00,
2013-01-13 06:44:00,33.8,-8.9,30.08,SSE,164,2.2,2.2,15,0.00,,,0.00,VWS V14.01,2013-01-13 14:44:00,
2013-01-13 06:49:00,33.6,-9.1,30.08,SE,134,0.0,0.0,15,0.00,,,0.00,VWS V14.01,2013-01-13 14:49:00,
2013-01-13 06:54:00,33.6,-9.1,30.11,SSE,149,3.1,3.1,15,0.00,,,0.00,VWS V14.01,2013-01-13 14:54:00,
2013-01-13 06:59:00,33.6,-9.1,30.11,East,98,2.2,4.0,15,0.00,,,0.00,VWS V14.01,2013-01-13 14:59:00,
2013-01-13 07:04:00,33.8,-8.9,30.11,South,189,2.2,4.0,15,0.00,,,0.00,VWS V14.01,2013-01-13 15:04:00,
2013-01-13 07:09:00,34.0,-8.8,30.11,SSE,154,0.0,3.6,15,0.00,,,0.00,VWS V14.01,2013-01-13 15:09:00,
2013-01-13 07:14:00,34.0,-8.8,30.11,ESE,122,0.0,0.0,15,0.00,,,0.00,VWS V14.01,2013-01-13 15:14:00,
2013-01-13 07:19:00,34.2,-8.6,30.11,NE,51,3.1,3.1,15,0.00,,,0.00,VWS V14.01,2013-01-13 15:19:00,
2013-01-13 07:24:00,34.2,-8.6,30.11,ESE,115,3.1,3.1,15,0.00,,,0.00,VWS V14.01,2013-01-13 15:24:00,
2013-01-13 07:29:00,34.2,-8.6,30.11,SE,129,3.6,3.6,15,0.00,,,0.00,VWS V14.01,2013-01-13 15:29:00,
2013-01-13 07:34:00,34.3,-8.5,30.11,SSE,168,3.1,3.6,15,0.00,,,0.00,VWS V14.01,2013-01-13 15:34:00,
2013-01-13 07:39:00,34.5,-8.4,30.11,SE,136,4.9,4.9,15,0.00,,,0.00,VWS V14.01,2013-01-13 15:39:00,
2013-01-13 07:44:00,34.7,-8.2,30.11,ENE,76,3.6,5.8,15,0.00,,,0.00,VWS V14.01,2013-01-13 15:44:00,
2013-01-13 07:49:00,34.9,-8.1,30.11,East,79,6.3,7.6,15,0.00,,,0.00,VWS V14.01,2013-01-13 15:49:00,
2013-01-13 07:54:00,34.9,-8.1,30.11,ESE,110,3.6,4.0,15,0.00,,,0.00,VWS V14.01,2013-01-13 15:54:00,
2013-01-13 07:59:00,35.1,-7.9,30.11,ESE,108,3.1,4.9,15,0.00,,,0.00,VWS V14.01,2013-01-13 15:59:00,
2013-01-13 08:04:00,35.2,-7.8,30.11,ESE,109,5.8,5.8,15,0.00,,,0.00,VWS V14.01,2013-01-13 16:04:00,
2013-01-13 08:09:00,35.6,-8.9,30.11,SSE,151,2.7,6.3,14,0.00,,,0.00,VWS V14.01,2013-01-13 16:09:00,
2013-01-13 08:15:00,36.1,-8.4,30.11,NE,35,6.3,6.7,14,0.00,,,0.00,VWS V14.01,2013-01-13 16:15:00,
2013-01-13 08:20:00,36.3,-8.3,30.11,ESE,119,3.6,5.4,14,0.00,,,0.00,VWS V14.01,2013-01-13 16:20:00,
2013-01-13 08:25:00,36.7,-8.0,30.11,East,87,3.6,8.1,14,0.00,,,0.00,VWS V14.01,2013-01-13 16:25:00,
2013-01-13 08:30:00,37.2,-7.6,30.11,NE,51,4.9,4.9,14,0.00,,,0.00,VWS V14.01,2013-01-13 16:30:00,
2013-01-13 08:35:00,37.4,-7.4,30.11,East,95,4.9,5.8,14,0.00,,,0.00,VWS V14.01,2013-01-13 16:35:00,
2013-01-13 08:40:00,37.6,-7.3,30.11,ENE,76,2.7,4.0,14,0.00,,,0.00,VWS V14.01,2013-01-13 16:40:00,
2013-01-13 08:45:00,38.1,-6.9,30.11,ESE,102,2.2,4.0,14,0.00,,,0.00,VWS V14.01,2013-01-13 16:45:00,
2013-01-13 08:50:00,38.5,-6.6,30.11,NE,41,3.1,5.8,14,0.00,,,0.00,VWS V14.01,2013-01-13 16:50:00,
2013-01-13 08:55:00,38.7,-6.4,30.11,East,83,3.1,3.1,14,0.00,,,0.00,VWS V14.01,2013-01-13 16:55:00,
2013-01-13 09:00:00,38.8,-6.3,30.11,NE,34,3.6,3.6,14,0.00,,,0.00,VWS V14.01,2013-01-13 17:00:00,
2013-01-13 09:05:00,39.0,-6.1,30.11,ESE,105,2.2,3.6,14,0.00,,,0.00,VWS V14.01,2013-01-13 17:05:00,
2013-01-13 09:10:00,39.4,-7.4,30.14,ESE,112,0.0,5.4,13,0.00,,,0.00,VWS V14.01,2013-01-13 17:10:00,
2013-01-13 09:15:00,39.7,-7.1,30.14,ESE,120,3.1,3.1,13,0.00,,,0.00,VWS V14.01,2013-01-13 17:15:00,
2013-01-13 09:20:00,39.9,-6.9,30.14,ENE,73,0.0,3.6,13,0.00,,,0.00,VWS V14.01,2013-01-13 17:20:00,
2013-01-13 09:25:00,40.3,-6.7,30.14,East,99,4.0,4.0,13,0.00,,,0.00,VWS V14.01,2013-01-13 17:25:00,
2013-01-13 09:30:00,40.5,-6.5,30.14,ESE,122,3.6,4.0,13,0.00,,,0.00,VWS V14.01,2013-01-13 17:30:00,
2013-01-13 09:35:00,41.0,-6.1,30.14,ENE,72,2.2,2.2,13,0.00,,,0.00,VWS V14.01,2013-01-13 17:35:00,
2013-01-13 09:40:00,41.5,-5.6,30.11,ESE,122,2.2,2.2,13,0.00,,,0.00,VWS V14.01,2013-01-13 17:40:00,
2013-01-13 09:45:00,42.1,-5.2,30.11,ESE,109,2.7,2.7,13,0.00,,,0.00,VWS V14.01,2013-01-13 17:45:00,
2013-01-13 09:50:00,42.4,-4.9,30.11,East,100,0.0,0.0,13,0.00,,,0.00,VWS V14.01,2013-01-13 17:50:00,
2013-01-13 09:55:00,42.8,-4.6,30.11,ESE,112,5.4,5.4,13,0.00,,,0.00,VWS V14.01,2013-01-13 17:55:00,
2013-01-13 10:00:00,43.0,-4.5,30.11,ESE,116,3.1,3.1,13,0.00,,,0.00,VWS V14.01,2013-01-13 18:00:00,
2013-01-13 10:05:00,42.8,-4.6,30.11,ESE,103,2.2,2.2,13,0.00,,,0.00,VWS V14.01,2013-01-13 18:05:00,
2013-01-13 10:10:00,43.2,-4.3,30.11,ESE,104,2.2,3.1,13,0.00,,,0.00,VWS V14.01,2013-01-13 18:10:00,
2013-01-13 10:15:00,43.7,-3.9,30.11,ESE,103,2.2,2.2,13,0.00,,,0.00,VWS V14.01,2013-01-13 18:15:00,
2013-01-13 10:20:00,43.7,-3.9,30.11,SSW,211,2.2,2.7,13,0.00,,,0.00,VWS V14.01,2013-01-13 18:20:00,
2013-01-13 10:25:00,43.7,-3.9,30.11,SSE,162,0.0,0.0,13,0.00,,,0.00,VWS V14.01,2013-01-13 18:25:00,
2013-01-13 10:30:00,44.1,-3.6,30.11,SW,230,4.0,4.0,13,0.00,,,0.00,VWS V14.01,2013-01-13 18:30:00,
2013-01-13 10:35:00,43.7,-3.9,30.11,WSW,244,0.0,3.1,13,0.00,,,0.00,VWS V14.01,2013-01-13 18:35:00,
2013-01-13 10:40:00,43.5,-4.1,30.11,SW,219,4.0,4.0,13,0.00,,,0.00,VWS V14.01,2013-01-13 18:40:00,
2013-01-13 10:45:00,43.7,-3.9,30.11,SSW,198,0.0,2.2,13,0.00,,,0.00,VWS V14.01,2013-01-13 18:45:00,
2013-01-13 10:50:00,44.4,-3.3,30.11,SW,226,0.0,0.0,13,0.00,,,0.00,VWS V14.01,2013-01-13 18:50:00,
2013-01-13 10:55:00,44.6,-4.9,30.11,ESE,123,2.7,2.7,12,0.00,,,0.00,VWS V14.01,2013-01-13 18:55:00,
2013-01-13 11:00:00,44.4,-3.3,30.11,SSE,153,0.0,3.6,13,0.00,,,0.00,VWS V14.01,2013-01-13 19:00:00,
2013-01-13 11:05:00,44.8,-4.7,30.11,North,1,3.1,3.1,12,0.00,,,0.00,VWS V14.01,2013-01-13 19:05:00,
2013-01-13 11:10:00,45.1,-4.4,30.11,NW,316,4.0,4.0,12,0.00,,,0.00,VWS V14.01,2013-01-13 19:10:00,
2013-01-13 11:15:00,45.3,-4.3,30.11,West,276,3.6,3.6,12,0.00,,,0.00,VWS V14.01,2013-01-13 19:15:00,
2013-01-13 11:20:00,45.7,-4.0,30.11,WNW,299,3.6,3.6,12,0.00,,,0.00,VWS V14.01,2013-01-13 19:20:00,
2013-01-13 11:25:00,45.9,-3.9,30.11,North,0,2.7,4.0,12,0.00,,,0.00,VWS V14.01,2013-01-13 19:25:00,
2013-01-13 11:30:00,45.9,-3.9,30.11,West,281,2.7,6.7,12,0.00,,,0.00,VWS V14.01,2013-01-13 19:30:00,
2013-01-13 11:35:00,45.9,-3.9,30.11,NNW,338,3.6,5.4,12,0.00,,,0.00,VWS V14.01,2013-01-13 19:35:00,
2013-01-13 11:40:00,46.0,-3.7,30.11,NW,324,2.7,4.9,12,0.00,,,0.00,VWS V14.01,2013-01-13 19:40:00,
2013-01-13 11:45:00,46.2,-3.6,30.11,NNE,23,3.1,5.8,12,0.00,,,0.00,VWS V14.01,2013-01-13 19:45:00,
2013-01-13 11:50:00,46.4,-3.4,30.11,NE,51,3.1,3.1,12,0.00,,,0.00,VWS V14.01,2013-01-13 19:50:00,
2013-01-13 11:55:00,46.8,-3.2,30.08,North,0,5.4,5.4,12,0.00,,,0.00,VWS V14.01,2013-01-13 19:55:00,
2013-01-13 12:00:00,46.8,-3.2,30.08,North,353,3.6,5.8,12,0.00,,,0.00,VWS V14.01,2013-01-13 20:00:00,
2013-01-13 12:05:00,46.8,-3.2,30.08,North,5,6.7,7.6,12,0.00,,,0.00,VWS V14.01,2013-01-13 20:05:00,
2013-01-13 12:10:00,46.9,-3.0,30.08,North,7,3.6,4.0,12,0.00,,,0.00,VWS V14.01,2013-01-13 20:10:00,
2013-01-13 12:15:00,47.1,-2.9,30.08,NW,304,5.4,5.4,12,0.00,,,0.00,VWS V14.01,2013-01-13 20:15:00,
2013-01-13 12:20:00,47.5,-2.6,30.08,West,272,3.1,3.6,12,0.00,,,0.00,VWS V14.01,2013-01-13 20:20:00,
2013-01-13 12:25:00,47.8,-2.3,30.08,NNE,33,0.0,3.1,12,0.00,,,0.00,VWS V14.01,2013-01-13 20:25:00,
2013-01-13 12:30:00,48.2,1.2,30.08,NNW,341,4.0,5.4,14,0.00,,,0.00,VWS V14.01,2013-01-13 20:30:00,
2013-01-13 12:35:00,47.8,-2.3,30.08,WNW,287,5.8,7.6,12,0.00,,,0.00,VWS V14.01,2013-01-13 20:35:00,
2013-01-13 12:40:00,47.8,-2.3,30.08,NE,46,3.6,6.3,12,0.00,,,0.00,VWS V14.01,2013-01-13 20:40:00,
2013-01-13 12:45:00,48.2,1.2,30.08,WNW,300,2.7,3.1,14,0.00,,,0.00,VWS V14.01,2013-01-13 20:45:00,
2013-01-13 12:50:00,48.6,1.5,30.08,North,357,5.8,5.8,14,0.00,,,0.00,VWS V14.01,2013-01-13 20:50:00,
2013-01-13 12:55:00,48.6,1.5,30.08,NNE,20,3.1,3.1,14,0.00,,,0.00,VWS V14.01,2013-01-13 20:55:00,
2013-01-13 13:00:00,48.6,1.5,30.08,NNE,12,5.4,5.4,14,0.00,,,0.00,VWS V14.01,2013-01-13 21:00:00,
2013-01-13 13:05:00,48.6,1.5,30.08,North,11,4.0,5.4,14,0.00,,,0.00,VWS V14.01,2013-01-13 21:05:00,
2013-01-13 13:10:00,48.2,1.2,30.08,NE,41,3.6,6.3,14,0.00,,,0.00,VWS V14.01,2013-01-13 21:10:00,
2013-01-13 13:15:00,48.6,1.5,30.08,NW,318,3.6,4.9,14,0.00,,,0.00,VWS V14.01,2013-01-13 21:15:00,
2013-01-13 13:20:00,48.6,1.5,30.08,NW,324,3.1,4.9,14,0.00,,,0.00,VWS V14.01,2013-01-13 21:20:00,
2013-01-13 13:26:00,48.7,1.7,30.08,WNW,285,3.6,5.4,14,0.00,,,0.00,VWS V14.01,2013-01-13 21:26:00,
2013-01-13 13:31:00,48.7,1.7,30.08,NW,326,3.1,5.8,14,0.00,,,0.00,VWS V14.01,2013-01-13 21:31:00,
2013-01-13 13:36:00,48.7,1.7,30.08,NW,320,2.7,5.8,14,0.00,,,0.00,VWS V14.01,2013-01-13 21:36:00,
2013-01-13 13:41:00,48.7,1.7,30.08,WNW,303,4.0,4.0,14,0.00,,,0.00,VWS V14.01,2013-01-13 21:41:00,
2013-01-13 13:46:00,48.7,1.7,30.08,West,268,5.8,5.8,14,0.00,,,0.00,VWS V14.01,2013-01-13 21:46:00,
2013-01-13 13:51:00,48.7,1.7,30.08,NNE,19,3.1,3.1,14,0.00,,,0.00,VWS V14.01,2013-01-13 21:51:00,
2013-01-13 13:56:00,49.1,2.0,30.08,NNW,335,3.1,6.3,14,0.00,,,0.00,VWS V14.01,2013-01-13 21:56:00,
2013-01-13 14:01:00,49.1,2.0,30.08,North,0,7.2,7.2,14,0.00,,,0.00,VWS V14.01,2013-01-13 22:01:00,
2013-01-13 14:06:00,49.1,2.0,30.08,North,6,5.8,5.8,14,0.00,,,0.00,VWS V14.01,2013-01-13 22:06:00,
2013-01-13 14:11:00,49.3,2.1,30.08,NNW,342,2.7,4.9,14,0.00,,,0.00,VWS V14.01,2013-01-13 22:11:00,
2013-01-13 14:16:00,49.5,2.3,30.08,North,357,3.1,5.4,14,0.00,,,0.00,VWS V14.01,2013-01-13 22:16:00,
2013-01-13 14:21:00,49.5,2.3,30.08,NE,38,5.8,7.2,14,0.00,,,0.00,VWS V14.01,2013-01-13 22:21:00,
2013-01-13 14:26:00,49.1,2.0,30.08,North,4,4.0,6.3,14,0.00,,,0.00,VWS V14.01,2013-01-13 22:26:00,
2013-01-13 14:31:00,48.7,1.7,30.08,WNW,282,2.7,4.0,14,0.00,,,0.00,VWS V14.01,2013-01-13 22:31:00,
2013-01-13 14:36:00,48.9,1.8,30.08,NW,323,3.6,3.6,14,0.00,,,0.00,VWS V14.01,2013-01-13 22:36:00,
2013-01-13 14:41:00,49.1,2.0,30.08,West,274,3.1,3.1,14,0.00,,,0.00,VWS V14.01,2013-01-13 22:41:00,
2013-01-13 14:46:00,49.3,2.1,30.08,NNE,28,5.4,5.4,14,0.00,,,0.00,VWS V14.01,2013-01-13 22:46:00,
2013-01-13 14:51:00,49.3,2.1,30.08,North,4,3.6,3.6,14,0.00,,,0.00,VWS V14.01,2013-01-13 22:51:00,
2013-01-13 14:56:00,49.3,2.1,30.08,NW,316,3.6,3.6,14,0.00,,,0.00,VWS V14.01,2013-01-13 22:56:00,
2013-01-13 15:01:00,49.3,2.1,30.08,WNW,287,4.9,4.9,14,0.00,,,0.00,VWS V14.01,2013-01-13 23:01:00,
2013-01-13 15:06:00,49.1,2.0,30.08,NNE,25,4.0,5.4,14,0.00,,,0.00,VWS V14.01,2013-01-13 23:06:00,
2013-01-13 15:11:00,49.1,2.0,30.08,North,357,3.1,3.1,14,0.00,,,0.00,VWS V14.01,2013-01-13 23:11:00,
2013-01-13 15:16:00,48.9,1.8,30.08,NW,305,3.1,4.0,14,0.00,,,0.00,VWS V14.01,2013-01-13 23:16:00,
2013-01-13 15:21:00,48.9,1.8,30.08,NW,322,2.7,3.1,14,0.00,,,0.00,VWS V14.01,2013-01-13 23:21:00,
2013-01-13 15:26:00,48.9,1.8,30.08,NNW,337,3.1,3.1,14,0.00,,,0.00,VWS V14.01,2013-01-13 23:26:00,
2013-01-13 15:31:00,48.9,1.8,30.08,West,281,2.7,2.7,14,0.00,,,0.00,VWS V14.01,2013-01-13 23:31:00,
2013-01-13 15:36:00,49.1,2.0,30.08,WNW,290,3.6,5.8,14,0.00,,,0.00,VWS V14.01,2013-01-13 23:36:00,
2013-01-13 15:41:00,48.9,1.8,30.05,North,357,2.7,2.7,14,0.00,,,0.00,VWS V14.01,2013-01-13 23:41:00,
2013-01-13 15:46:00,48.9,1.8,30.05,NW,319,0.0,2.2,14,0.00,,,0.00,VWS V14.01,2013-01-13 23:46:00,
2013-01-13 15:51:00,48.7,1.7,30.05,NNE,14,5.4,5.4,14,0.00,,,0.00,VWS V14.01,2013-01-13 23:51:00,
2013-01-13 15:56:00,48.2,1.2,30.08,West,264,2.7,2.7,14,0.00,,,0.00,VWS V14.01,2013-01-13 23:56:00,
2013-01-13 16:01:00,48.0,1.1,30.08,North,0,5.4,5.8,14,0.00,,,0.00,VWS V14.01,2013-01-14 00:01:00,
2013-01-13 16:06:00,47.7,-2.5,30.08,North,2,2.7,6.3,12,0.00,,,0.00,VWS V14.01,2013-01-14 00:06:00,
2013-01-13 16:11:00,47.7,-2.5,30.05,NNE,23,2.7,2.7,12,0.00,,,0.00,VWS V14.01,2013-01-14 00:11:00,
2013-01-13 16:16:00,47.8,1.0,30.05,West,277,5.4,5.4,14,0.00,,,0.00,VWS V14.01,2013-01-14 00:16:00,
2013-01-13 16:21:00,48.0,1.1,30.05,NNW,338,2.2,2.7,14,0.00,,,0.00,VWS V14.01,2013-01-14 00:21:00,
2013-01-13 16:26:00,47.8,1.0,30.05,NNE,14,3.6,5.4,14,0.00,,,0.00,VWS V14.01,2013-01-14 00:26:00,
2013-01-13 16:31:00,47.5,-2.6,30.05,North,2,3.1,3.1,12,0.00,,,0.00,VWS V14.01,2013-01-14 00:31:00,
2013-01-13 16:36:00,47.1,-2.9,30.05,North,353,3.1,5.8,12,0.00,,,0.00,VWS V14.01,2013-01-14 00:36:00,
2013-01-13 16:41:00,46.8,-3.2,30.05,NNW,329,5.8,5.8,12,0.00,,,0.00,VWS V14.01,2013-01-14 00:41:00,
2013-01-13 16:46:00,46.4,-3.4,30.05,NNE,12,4.0,4.0,12,0.00,,,0.00,VWS V14.01,2013-01-14 00:46:00,
2013-01-13 16:51:00,46.2,-3.6,30.05,North,357,3.6,3.6,12,0.00,,,0.00,VWS V14.01,2013-01-14 00:51:00,
2013-01-13 16:56:00,45.9,-3.9,30.05,North,3,4.9,5.4,12,0.00,,,0.00,VWS V14.01,2013-01-14 00:56:00,
2013-01-13 17:01:00,45.3,-4.3,30.05,North,2,2.2,4.9,12,0.00,,,0.00,VWS V14.01,2013-01-14 01:01:00,
2013-01-13 17:06:00,44.8,-4.7,30.05,North,357,3.1,3.1,12,0.00,,,0.00,VWS V14.01,2013-01-14 01:06:00,
2013-01-13 17:11:00,44.2,-3.5,30.05,North,5,3.1,3.6,13,0.00,,,0.00,VWS V14.01,2013-01-14 01:11:00,
2013-01-13 17:16:00,43.7,-3.9,30.05,North,357,0.0,3.6,13,0.00,,,0.00,VWS V14.01,2013-01-14 01:16:00,
2013-01-13 17:21:00,43.3,-4.2,30.05,North,349,0.0,0.0,13,0.00,,,0.00,VWS V14.01,2013-01-14 01:21:00,
2013-01-13 17:26:00,43.0,-4.5,30.05,North,2,2.2,4.5,13,0.00,,,0.00,VWS V14.01,2013-01-14 01:26:00,
2013-01-13 17:31:00,42.6,-4.8,30.05,North,4,2.7,2.7,13,0.00,,,0.00,VWS V14.01,2013-01-14 01:31:00,
2013-01-13 17:36:00,42.3,-5.1,30.05,NNE,14,0.0,2.2,13,0.00,,,0.00,VWS V14.01,2013-01-14 01:36:00,
2013-01-13 17:41:00,41.9,-5.3,30.05,NNE,14,0.0,0.0,13,0.00,,,0.00,VWS V14.01,2013-01-14 01:41:00,
2013-01-13 17:46:00,41.5,-5.6,30.05,ENE,71,0.0,0.0,13,0.00,,,0.00,VWS V14.01,2013-01-14 01:46:00,
2013-01-13 17:51:00,41.2,-5.9,30.05,ENE,71,2.7,2.7,13,0.00,,,0.00,VWS V14.01,2013-01-14 01:51:00,
2013-01-13 17:56:00,41.0,-6.1,30.05,ENE,71,0.0,0.0,13,0.00,,,0.00,VWS V14.01,2013-01-14 01:56:00,
2013-01-13 18:01:00,41.0,-6.1,30.05,ENE,74,0.0,0.0,13,0.00,,,0.00,VWS V14.01,2013-01-14 02:01:00,
2013-01-13 18:06:00,40.6,-6.4,30.05,ENE,74,0.0,0.0,13,0.00,,,0.00,VWS V14.01,2013-01-14 02:06:00,
2013-01-13 18:11:00,40.5,-6.5,30.05,ESE,104,2.7,4.0,13,0.00,,,0.00,VWS V14.01,2013-01-14 02:11:00,
2013-01-13 18:16:00,40.5,-6.5,30.05,ENE,75,2.2,5.8,13,0.00,,,0.00,VWS V14.01,2013-01-14 02:16:00,
2013-01-13 18:21:00,40.3,-6.7,30.05,ESE,123,3.1,3.6,13,0.00,,,0.00,VWS V14.01,2013-01-14 02:21:00,
2013-01-13 18:26:00,40.3,-6.7,30.05,SE,130,2.7,2.7,13,0.00,,,0.00,VWS V14.01,2013-01-14 02:26:00,
2013-01-13 18:31:00,40.3,-6.7,30.05,ESE,102,0.0,2.2,13,0.00,,,0.00,VWS V14.01,2013-01-14 02:31:00,
2013-01-13 18:36:00,40.5,-6.5,30.05,SE,142,0.0,2.7,13,0.00,,,0.00,VWS V14.01,2013-01-14 02:36:00,
2013-01-13 18:41:00,40.5,-6.5,30.05,ESE,113,0.0,0.0,13,0.00,,,0.00,VWS V14.01,2013-01-14 02:41:00,
2013-01-13 18:46:00,40.3,-6.7,30.05,NNE,31,0.0,0.0,13,0.00,,,0.00,VWS V14.01,2013-01-14 02:46:00,
2013-01-13 18:51:00,40.3,-6.7,30.05,NE,35,0.0,0.0,13,0.00,,,0.00,VWS V14.01,2013-01-14 02:51:00,
2013-01-13 18:56:00,40.1,-6.8,30.05,North,2,0.0,0.0,13,0.00,,,0.00,VWS V14.01,2013-01-14 02:56:00,
2013-01-13 19:01:00,39.9,-6.9,30.05,WNW,288,0.0,3.6,13,0.00,,,0.00,VWS V14.01,2013-01-14 03:01:00,
2013-01-13 19:06:00,39.9,-6.9,30.05,West,272,2.7,2.7,13,0.00,,,0.00,VWS V14.01,2013-01-14 03:06:00,
2013-01-13 19:11:00,39.7,-7.1,30.05,WNW,292,0.0,2.7,13,0.00,,,0.00,VWS V14.01,2013-01-14 03:11:00,
2013-01-13 19:16:00,39.4,-7.4,30.05,West,268,0.0,0.0,13,0.00,,,0.00,VWS V14.01,2013-01-14 03:16:00,
2013-01-13 19:21:00,39.2,-7.5,30.05,NW,310,2.7,2.7,13,0.00,,,0.00,VWS V14.01,2013-01-14 03:21:00,
2013-01-13 19:26:00,38.8,-6.3,30.05,NNW,328,0.0,0.0,14,0.00,,,0.00,VWS V14.01,2013-01-14 03:26:00,
2013-01-13 19:31:00,38.8,-6.3,30.05,NNE,18,2.7,2.7,14,0.00,,,0.00,VWS V14.01,2013-01-14 03:31:00,
2013-01-13 19:36:00,38.7,-6.4,30.05,North,4,2.7,3.1,14,0.00,,,0.00,VWS V14.01,2013-01-14 03:36:00,
2013-01-13 19:41:00,38.8,-6.3,30.05,NNE,13,2.7,3.1,14,0.00,,,0.00,VWS V14.01,2013-01-14 03:41:00,
2013-01-13 19:46:00,38.5,-6.6,30.05,North,0,0.0,0.0,14,0.00,,,0.00,VWS V14.01,2013-01-14 03:46:00,
2013-01-13 19:51:00,38.1,-6.9,30.05,North,0,0.0,0.0,14,0.00,,,0.00,VWS V14.01,2013-01-14 03:51:00,
2013-01-13 19:56:00,38.1,-6.9,30.05,North,353,0.0,3.1,14,0.00,,,0.00,VWS V14.01,2013-01-14 03:56:00,
2013-01-13 20:01:00,38.1,-6.9,30.05,NNW,344,0.0,0.0,14,0.00,,,0.00,VWS V14.01,2013-01-14 04:01:00,
2013-01-13 20:06:00,37.9,-7.0,30.05,NNW,340,3.1,3.1,14,0.00,,,0.00,VWS V14.01,2013-01-14 04:06:00,
2013-01-13 20:11:00,37.8,-7.2,30.05,NNE,12,2.2,3.1,14,0.00,,,0.00,VWS V14.01,2013-01-14 04:11:00,
2013-01-13 20:16:00,37.8,-7.2,30.05,NW,310,0.0,5.4,14,0.00,,,0.00,VWS V14.01,2013-01-14 04:16:00,
2013-01-13 20:21:00,37.9,-4.2,30.05,NNE,14,0.0,0.0,16,0.00,,,0.00,VWS V14.01,2013-01-14 04:21:00,
2013-01-13 20:26:00,38.1,-4.1,30.05,North,353,0.0,2.7,16,0.00,,,0.00,VWS V14.01,2013-01-14 04:26:00,
2013-01-13 20:31:00,38.5,-3.8,30.05,North,353,2.7,3.6,16,0.00,,,0.00,VWS V14.01,2013-01-14 04:31:00,
2013-01-13 20:36:00,39.2,-7.5,30.05,NW,316,4.0,5.8,13,0.00,,,0.00,VWS V14.01,2013-01-14 04:36:00,
2013-01-13 20:41:00,39.6,-7.2,30.05,NNE,18,3.6,4.0,13,0.00,,,0.00,VWS V14.01,2013-01-14 04:41:00,
2013-01-13 20:46:00,39.7,-7.1,30.05,NNW,340,2.7,3.1,13,0.00,,,0.00,VWS V14.01,2013-01-14 04:46:00,
2013-01-13 20:51:00,39.9,-6.9,30.05,WNW,297,2.7,2.7,13,0.00,,,0.00,VWS V14.01,2013-01-14 04:51:00,
2013-01-13 20:56:00,39.9,-6.9,30.05,WNW,297,3.6,4.0,13,0.00,,,0.00,VWS V14.01,2013-01-14 04:56:00,
2013-01-13 21:00:00,39.9,-6.9,30.05,NW,311,2.2,4.0,13,0.00,,,0.00,VWS V14.01,2013-01-14 05:00:00,
2013-01-13 21:01:00,39.9,-6.9,30.05,NW,311,2.2,4.0,13,0.00,,,0.00,VWS V14.01,2013-01-14 05:01:00,
2013-01-13 21:03:00,39.9,-6.9,30.05,NW,305,2.2,3.1,13,0.00,,,0.00,VWS V14.01,2013-01-14 05:03:00,
2013-01-13 21:08:00,39.7,-7.1,30.05,NW,306,2.7,3.1,13,0.00,,,0.00,VWS V14.01,2013-01-14 05:08:00,
2013-01-13 21:13:00,39.6,-7.2,30.05,NW,306,2.2,2.7,13,0.00,,,0.00,VWS V14.01,2013-01-14 05:13:00,
2013-01-13 21:18:00,39.4,-7.4,30.05,NW,304,0.0,0.0,13,0.00,,,0.00,VWS V14.01,2013-01-14 05:18:00,
2013-01-13 21:23:00,39.2,-7.5,30.05,WSW,238,0.0,0.0,13,0.00,,,0.00,VWS V14.01,2013-01-14 05:23:00,
2013-01-13 21:28:00,38.8,-6.3,30.05,SW,231,2.7,2.7,14,0.00,,,0.00,VWS V14.01,2013-01-14 05:28:00,
2013-01-13 21:33:00,38.7,-6.4,30.05,SW,231,0.0,0.0,14,0.00,,,0.00,VWS V14.01,2013-01-14 05:33:00,
2013-01-13 21:38:00,38.7,-6.4,30.05,SW,231,0.0,0.0,14,0.00,,,0.00,VWS V14.01,2013-01-14 05:38:00,
2013-01-13 21:43:00,38.5,-6.6,30.05,SSE,168,0.0,0.0,14,0.00,,,0.00,VWS V14.01,2013-01-14 05:43:00,
2013-01-13 21:48:00,38.5,-6.6,30.05,SSE,148,2.7,2.7,14,0.00,,,0.00,VWS V14.01,2013-01-14 05:48:00,
2013-01-13 21:53:00,38.3,-6.7,30.05,SE,126,2.2,2.7,14,0.00,,,0.00,VWS V14.01,2013-01-14 05:53:00,
2013-01-13 21:58:00,37.9,-7.0,30.05,ESE,123,0.0,0.0,14,0.00,,,0.00,VWS V14.01,2013-01-14 05:58:00,
2013-01-13 22:03:00,37.8,-7.2,30.05,SE,124,0.0,0.0,14,0.00,,,0.00,VWS V14.01,2013-01-14 06:03:00,
2013-01-13 22:08:00,37.2,-7.6,30.05,NW,314,2.7,3.1,14,0.00,,,0.00,VWS V14.01,2013-01-14 06:08:00,
2013-01-13 22:13:00,37.4,-7.4,30.05,East,84,2.7,3.6,14,0.00,,,0.00,VWS V14.01,2013-01-14 06:13:00,
2013-01-13 22:18:00,38.3,-6.7,30.05,NNE,22,4.9,5.4,14,0.00,,,0.00,VWS V14.01,2013-01-14 06:18:00,
2013-01-13 22:23:00,38.8,-6.3,30.05,South,183,0.0,0.0,14,0.00,,,0.00,VWS V14.01,2013-01-14 06:23:00,
2013-01-13 22:28:00,39.0,-6.1,30.05,NE,52,2.2,5.8,14,0.00,,,0.00,VWS V14.01,2013-01-14 06:28:00,
2013-01-13 22:33:00,39.2,-7.5,30.05,ENE,71,3.6,3.6,13,0.00,,,0.00,VWS V14.01,2013-01-14 06:33:00,
2013-01-13 22:38:00,39.6,-7.2,30.05,West,265,0.0,3.6,13,0.00,,,0.00,VWS V14.01,2013-01-14 06:38:00,
2013-01-13 22:43:00,39.7,-7.1,30.05,NNW,344,4.9,5.8,13,0.00,,,0.00,VWS V14.01,2013-01-14 06:43:00,
2013-01-13 22:48:00,39.7,-7.1,30.05,NW,314,3.6,3.6,13,0.00,,,0.00,VWS V14.01,2013-01-14 06:48:00,
2013-01-13 22:53:00,39.4,-7.4,30.08,NE,52,4.0,5.4,13,0.00,,,0.00,VWS V14.01,2013-01-14 06:53:00,
2013-01-13 22:58:00,39.2,-7.5,30.08,NNW,346,3.6,3.6,13,0.00,,,0.00,VWS V14.01,2013-01-14 06:58:00,
2013-01-13 23:03:00,39.4,-7.4,30.08,WNW,285,8.1,8.1,13,0.00,,,0.00,VWS V14.01,2013-01-14 07:03:00,
2013-01-13 23:08:00,39.7,-7.1,30.08,North,5,7.6,12.3,13,0.00,,,0.00,VWS V14.01,2013-01-14 07:08:00,
2013-01-13 23:14:00,39.9,-6.9,30.08,NNW,338,3.1,4.9,13,0.00,,,0.00,VWS V14.01,2013-01-14 07:14:00,
2013-01-13 23:19:00,39.9,-6.9,30.08,NNE,16,5.8,5.8,13,0.00,,,0.00,VWS V14.01,2013-01-14 07:19:00,
2013-01-13 23:24:00,39.7,-7.1,30.08,NE,42,2.2,3.1,13,0.00,,,0.00,VWS V14.01,2013-01-14 07:24:00,
2013-01-13 23:29:00,39.6,-7.2,30.08,North,353,4.0,4.0,13,0.00,,,0.00,VWS V14.01,2013-01-14 07:29:00,
2013-01-13 23:34:00,39.4,-7.4,30.08,NNW,343,7.6,7.6,13,0.00,,,0.00,VWS V14.01,2013-01-14 07:34:00,
2013-01-13 23:39:00,39.4,-7.4,30.08,ENE,78,4.0,6.3,13,0.00,,,0.00,VWS V14.01,2013-01-14 07:39:00,
2013-01-13 23:44:00,39.4,-7.4,30.08,WNW,297,5.4,6.3,13,0.00,,,0.00,VWS V14.01,2013-01-14 07:44:00,
2013-01-13 23:49:00,39.6,-7.2,30.08,ENE,73,3.1,4.0,13,0.00,,,0.00,VWS V14.01,2013-01-14 07:49:00,
2013-01-13 23:54:00,39.4,-7.4,30.08,WNW,290,5.4,6.7,13,0.00,,,0.00,VWS V14.01,2013-01-14 07:54:00,
2013-01-13 23:59:00,39.4,-7.4,30.08,WNW,294,3.6,4.9,13,0.00,,,0.00,VWS V14.01,2013-01-14 07:59:00,